Weather reports worldwide

Advertisment
Cavendish, United Kingdom (99161): temperature & dewpoint: 18.10.2020 18:00:00 - 24.10.2020 18:00:00 (BST)Cavendish, United Kingdom (99161): precipitation: 18.10.2020 18:00:00 - 24.10.2020 18:00:00 (BST)
Date & Time tt [°C] td [°C] rr [mm]
24.10.2020 18:00:00 - - 0,0
24.10.2020 17:00:00 15,0 12,9 0,0
24.10.2020 16:00:00 14,6 12,8 0,0
24.10.2020 15:00:00 14,6 11,6 0,0
24.10.2020 14:00:00 14,7 11,2 0,0
24.10.2020 13:00:00 14,4 11,6 0,0
24.10.2020 12:00:00 13,6 10,8 0,0
24.10.2020 11:00:00 12,1 9,9 0,0
24.10.2020 10:00:00 11,3 9,1 0,0
24.10.2020 09:00:00 9,8 8,1 0,0
24.10.2020 08:00:00 8,7 7,5 0,0
24.10.2020 07:00:00 8,6 7,0 0,0
24.10.2020 06:00:00 8,0 6,3 0,0
24.10.2020 05:00:00 6,5 5,4 0,0
24.10.2020 04:00:00 5,9 4,8 0,0
24.10.2020 03:00:00 6,0 4,7 0,0
24.10.2020 02:00:00 6,5 4,8 0,0
24.10.2020 01:00:00 6,6 5,2 0,0
24.10.2020 00:00:00 6,7 5,2 0,0
23.10.2020 23:00:00 8,1 5,9 0,0
23.10.2020 22:00:00 9,0 6,1 0,0
23.10.2020 21:00:00 10,8 6,9 0,0
23.10.2020 20:00:00 11,6 7,9 0,0
23.10.2020 19:00:00 12,3 9,2 0,0
23.10.2020 18:00:00 13,0 9,2 0,0
23.10.2020 17:00:00 14,3 9,5 0,0
23.10.2020 16:00:00 15,5 10,5 0,0
23.10.2020 15:00:00 15,9 11,5 0,0
23.10.2020 14:00:00 15,1 12,0 0,0
23.10.2020 13:00:00 14,4 11,2 0,0
23.10.2020 12:00:00 14,5 11,2 0,0
23.10.2020 11:00:00 14,6 11,6 0,0
23.10.2020 10:00:00 13,0 11,6 0,0
23.10.2020 09:00:00 12,7 12,1 0,0
23.10.2020 08:00:00 11,2 11,2 0,0
23.10.2020 07:00:00 10,6 10,6 0,0
23.10.2020 06:00:00 10,3 10,2 0,0
23.10.2020 05:00:00 10,1 9,8 0,0
23.10.2020 04:00:00 9,8 9,6 0,0
23.10.2020 03:00:00 9,0 8,4 0,0
23.10.2020 02:00:00 9,3 8,4 0,0
23.10.2020 01:00:00 9,4 9,2 0,0
23.10.2020 00:00:00 8,2 7,7 0,0
22.10.2020 23:00:00 8,9 8,3 0,0
22.10.2020 22:00:00 9,8 9,0 0,0
22.10.2020 21:00:00 9,1 8,4 0,0
22.10.2020 20:00:00 9,5 8,5 0,0
22.10.2020 19:00:00 9,4 7,6 0,0
22.10.2020 18:00:00 11,6 8,4 0,0
22.10.2020 17:00:00 14,0 9,0 0,0
22.10.2020 16:00:00 14,5 9,3 0,0
22.10.2020 15:00:00 14,2 9,0 0,0
22.10.2020 14:00:00 14,9 10,2 0,0
22.10.2020 13:00:00 14,7 10,7 0,0
22.10.2020 12:00:00 14,4 11,1 0,0
22.10.2020 11:00:00 13,6 10,7 0,0
22.10.2020 10:00:00 13,7 10,8 0,0
22.10.2020 09:00:00 12,7 10,7 0,0
22.10.2020 08:00:00 12,2 10,3 0,0
22.10.2020 07:00:00 12,1 10,0 0,0
22.10.2020 06:00:00 12,4 10,2 0,0
22.10.2020 05:00:00 12,1 10,2 0,2
22.10.2020 04:00:00 11,7 10,1 0,0
22.10.2020 03:00:00 11,9 10,1 0,0
22.10.2020 02:00:00 12,0 10,1 0,0
22.10.2020 01:00:00 12,5 10,0 0,0
22.10.2020 00:00:00 13,1 11,9 0,0
21.10.2020 23:00:00 13,3 12,2 0,0
21.10.2020 22:00:00 13,5 12,6 0,0
21.10.2020 21:00:00 13,5 12,7 0,0
21.10.2020 20:00:00 13,5 12,7 0,0
21.10.2020 19:00:00 13,4 12,6 0,0
21.10.2020 18:00:00 13,6 12,8 0,2
21.10.2020 17:00:00 14,2 13,4 0,2
21.10.2020 16:00:00 14,9 14,0 0,0
21.10.2020 15:00:00 15,0 14,3 0,0
21.10.2020 14:00:00 14,7 14,4 0,6
21.10.2020 13:00:00 14,3 14,0 1,6
21.10.2020 12:00:00 13,8 13,7 4,0
21.10.2020 11:00:00 13,5 13,4 1,0
21.10.2020 10:00:00 13,3 13,1 1,0
21.10.2020 09:00:00 13,3 13,1 1,0
21.10.2020 08:00:00 13,5 13,3 2,2
21.10.2020 07:00:00 13,5 13,3 1,0
21.10.2020 06:00:00 13,4 13,2 1,0
21.10.2020 05:00:00 13,5 13,1 0,2
21.10.2020 04:00:00 13,3 12,9 0,0
21.10.2020 03:00:00 12,6 12,2 0,0
21.10.2020 02:00:00 13,0 12,3 0,0
21.10.2020 01:00:00 13,3 12,4 0,0
21.10.2020 00:00:00 13,0 12,2 0,0
20.10.2020 23:00:00 13,0 12,0 0,0
20.10.2020 22:00:00 14,0 12,7 0,0
20.10.2020 21:00:00 - - 0,0
20.10.2020 20:00:00 - - 0,0
20.10.2020 19:00:00 - - 0,0
20.10.2020 18:00:00 - - 0,0
20.10.2020 17:00:00 - - 0,0
20.10.2020 16:00:00 - - 0,0
20.10.2020 15:00:00 - - 0,0
20.10.2020 14:00:00 17,1 12,4 0,0
20.10.2020 13:00:00 17,2 12,5 0,0
20.10.2020 12:00:00 15,8 12,9 0,0
20.10.2020 11:00:00 14,5 12,0 0,0
20.10.2020 10:00:00 14,3 12,1 0,0
20.10.2020 09:00:00 12,4 11,1 0,0
20.10.2020 08:00:00 12,2 10,9 0,0
20.10.2020 07:00:00 11,8 10,4 0,2
20.10.2020 06:00:00 11,6 9,5 0,0
20.10.2020 05:00:00 11,2 8,6 0,0
20.10.2020 04:00:00 10,9 7,7 0,0
20.10.2020 03:00:00 11,0 7,4 0,0
20.10.2020 02:00:00 10,9 7,1 0,0
20.10.2020 01:00:00 10,9 6,8 0,0
20.10.2020 00:00:00 11,0 6,9 0,0
19.10.2020 23:00:00 11,2 7,1 0,0
19.10.2020 22:00:00 11,6 7,1 0,0
19.10.2020 21:00:00 11,6 7,0 0,0
19.10.2020 20:00:00 11,5 7,2 0,0
19.10.2020 19:00:00 11,4 7,2 0,0
19.10.2020 18:00:00 11,9 6,4 0,0
19.10.2020 17:00:00 12,9 5,6 0,0
19.10.2020 16:00:00 13,8 6,5 0,0
19.10.2020 15:00:00 14,1 7,3 0,0
19.10.2020 14:00:00 13,6 7,4 0,0
19.10.2020 13:00:00 13,2 8,3 0,2
19.10.2020 12:00:00 12,8 9,0 0,0
19.10.2020 11:00:00 12,1 9,0 0,0
19.10.2020 10:00:00 10,6 8,0 0,0
19.10.2020 09:00:00 9,6 8,0 0,0
19.10.2020 08:00:00 8,6 7,3 0,0
19.10.2020 07:00:00 8,7 7,1 0,0
19.10.2020 06:00:00 8,8 7,0 0,0
19.10.2020 05:00:00 8,7 7,0 0,0
19.10.2020 04:00:00 8,8 7,1 0,0
19.10.2020 03:00:00 8,6 7,0 0,0
19.10.2020 02:00:00 8,9 6,8 0,0
19.10.2020 01:00:00 8,8 7,5 0,0
19.10.2020 00:00:00 8,5 7,7 0,0
18.10.2020 23:00:00 8,8 7,9 0,0
18.10.2020 22:00:00 8,6 7,7 0,0
18.10.2020 21:00:00 9,0 8,0 0,0
18.10.2020 20:00:00 9,3 7,9 0,0
18.10.2020 19:00:00 9,8 8,0 0,0
18.10.2020 18:00:00 10,4 7,6 0,0

tt = temperature
td = dewpoint
rr = precipitation

Next stations